[[{"header":{"parameterUnit":"m.s-1","parameterCategory":1,"la1":30.2991,"la2":30.254,"lo1":-89.0895,"lo2":-89.0444,"dy":0.0017,"dx":0.0017,"nx":28,"ny":28,"refTime":"2024-10-02T09:00:00:Z","depth":0,"parameterNumber":2,"parameterNumberName":"U-component_of_WINDS"},"data":[0,0,0,0,0,0,0,0,0,0,0,0,0,0,0,0,0,0,0,0,0,0,0,0,0,0,0,0,0,0,0,0,0,0,0,0,0,0,0,0,0,0,0,0,0,0,0,0,0,0,0,0,0,0,0,0,0,0,-6.0589,-6.0589,0,-6.0623,-6.0623,-6.0623,-6.0478,-6.0474,-6.0469,-6.0465,-6.0497,-6.0502,-6.0507,0,0,0,0,0,0,0,0,0,0,0,0,0,-6.0395,-6.04,-6.0589,-6.0589,-6.059,-6.0622,-6.0623,-6.0623,-6.0479,-6.0473,-6.0468,-6.0463,-6.0496,-6.0502,-6.0507,0,0,0,0,0,0,0,0,0,0,0,0,0,-6.0459,-6.0401,-6.0589,-6.0521,-6.0516,-6.0622,-6.0623,-6.0623,-6.048,-6.0473,-6.0467,-6.0461,-6.0494,-6.0501,-6.0508,-6.068,0,0,-6.053,-6.0533,0,0,0,0,0,0,0,0,-6.0456,-6.0467,-6.0531,-6.0526,-6.052,-6.0539,-6.0566,-6.0643,-6.0481,-6.0493,-6.0465,-6.0458,-6.0516,-6.0521,-6.0542,-6.0682,-6.0683,-6.0531,-6.0535,-6.0538,-6.054,0,0,0,0,0,0,0,-6.0452,-6.0464,-6.0602,-6.0532,-6.0525,-6.0488,-6.049,-6.058,-6.054,-6.0492,-6.0481,-6.0487,-6.0512,-6.0535,-6.0541,-6.0684,-6.0531,-6.0537,-6.0542,-6.0544,-6.0964,-6.097,0,0,0,0,0,0,-6.0457,-6.0462,-6.0601,-6.0603,-6.0472,-6.0497,-6.0499,-6.054,-6.0539,-6.0533,-6.0493,-6.048,-6.0526,-6.0533,-6.0542,-6.074,-6.0538,-6.0545,-6.0549,-6.0957,-6.0965,-6.0973,0,0,0,0,0,0,-6.0453,-6.047,-6.0599,-6.053,-6.0543,-6.0507,-6.0554,-6.0544,-6.0566,-6.054,-6.0531,-6.0524,-6.0521,-6.0532,-6.0646,-6.0739,-6.0548,-6.0555,-6.0949,-6.096,-6.0969,-6.114,0,0,0,0,0,0,-6.0448,-6.047,-6.0536,-6.0532,-6.0547,-6.0705,-6.0559,-6.0549,-6.0579,-6.0564,-6.0566,-6.0561,-6.0517,-6.0636,-6.0654,-6.0746,-6.0561,-6.094,-6.0954,-6.0966,-6.1126,-6.1155,-6.118,0,0,0,0,0,-6.0442,-6.0583,-6.054,-6.0558,-6.0629,-6.0711,-6.0719,-6.0666,-6.0588,-6.0652,-6.0635,-6.0561,-6.0728,-6.0649,-6.0668,-6.0763,-6.0934,-6.095,-6.0965,-6.1114,-6.115,-6.1179,0,0,0,0,0,0,-6.0598,-6.0581,-6.0533,-6.0678,-6.0697,-6.0686,-6.0766,-6.0706,-6.0747,-6.0731,-6.0663,-6.0665,-6.0791,-6.0789,-6.0702,-6.0929,-6.0817,-6.0837,-6.0924,-6.0958,-6.0984,-6.098,-6.0567,0,0,0,0,0,-6.0649,-6.0718,-6.0699,-6.0829,-6.0841,-6.0803,-6.0836,-6.0794,-6.081,-6.0817,-6.0808,-6.0827,-6.0882,-6.0921,-6.0971,-6.1127,-6.1123,-6.1202,-6.1229,-6.1251,-6.1267,-6.1346,-6.1379,-6.1023,-6.1023,-6.1022,0,0,-6.0756,-6.0755,-6.0802,-6.086,-6.0869,-6.094,-6.081,-6.0891,-6.0942,-6.0829,-6.0936,-6.0931,-6.0946,-6.1082,-6.1141,-6.1084,-6.1366,-6.127,-6.1288,-6.1292,-6.1365,-6.1399,-6.1429,-6.1033,-6.1031,-6.103,0,0,-6.0984,-6.0993,-6.1099,-6.1112,-6.1129,-6.1102,-6.1128,-6.1127,-6.1119,-6.1225,-6.1142,-6.1202,-6.1301,-6.1314,-6.1334,-6.1569,-6.15,-6.1588,-6.1726,-6.1804,-6.1832,-6.1856,-6.1936,-6.1966,-6.1605,-6.1606,-6.1606,0,-6.1113,-6.1217,-6.1162,-6.1248,-6.1274,-6.1177,-6.1283,-6.1298,-6.1331,-6.135,-6.1287,-6.1408,-6.1412,-6.1547,-6.1605,-6.1626,-6.1651,-6.1585,-6.1833,-6.1857,-6.1879,-6.1954,-6.1984,-6.1616,-6.1615,-6.1614,-6.1613,0,-6.1374,-6.1447,-6.1531,-6.1565,-6.1601,-6.1698,-6.1655,-6.1699,-6.1654,-6.1635,-6.1743,-6.1745,-6.1793,-6.1823,-6.1781,-6.1952,-6.1915,-6.1845,-6.173,-6.1924,-6.1993,-6.2021,-6.163,-6.1627,-6.1624,-6.1621,0,0,-6.1698,-6.17,-6.1732,-6.1744,-6.1756,-6.1811,-6.1903,-6.195,-6.1987,-6.2013,-6.2085,-6.2172,-6.2106,-6.2129,-6.2087,-6.2156,-6.2337,-6.2075,-6.2075,-6.212,-6.2522,-6.2572,-6.2606,-6.2294,-6.2299,-6.2304,-6.2519,0,-6.1919,-6.2074,-6.2027,-6.2183,-6.2248,-6.2158,-6.2236,-6.2252,-6.2236,-6.2288,-6.2271,-6.2331,-6.2242,-6.2254,-6.2319,-6.2302,-6.2416,-6.2286,-6.2357,-6.2361,-6.2351,-6.2643,-6.2696,-6.2899,-6.2546,-6.255,-6.2554,0,-6.2196,-6.2232,-6.2395,-6.2394,-6.242,-6.2492,-6.253,-6.2582,-6.2597,-6.2581,-6.2607,-6.2551,-6.2639,-6.2529,-6.2646,-6.2559,-6.2586,-6.2583,-6.2589,-6.2589,-6.2465,-6.2647,-6.2963,-6.2991,-6.2597,-6.2593,-6.259,0,-6.241,-6.2501,-6.2609,-6.2624,-6.2626,-6.2678,-6.2682,-6.2691,-6.2722,-6.2756,-6.2774,-6.2819,-6.2842,-6.2877,-6.2834,-6.2758,-6.2958,-6.2844,-6.2943,-6.2945,-6.2985,-6.2982,-6.3305,-6.3012,-6.3011,-6.3011,-6.301,0,-6.2658,-6.276,-6.2705,-6.2771,-6.2882,-6.2827,-6.2938,-6.2931,-6.294,-6.3002,-6.2928,-6.2988,-6.293,-6.2983,-6.2951,-6.3051,-6.3064,-6.3051,-6.304,-6.3055,-6.3056,-6.3068,-6.305,-6.3019,-6.3017,-6.3015,-6.3014,0,-6.2914,-6.2882,-6.2993,-6.2987,-6.2988,-6.307,-6.3063,-6.3123,-6.3104,-6.3183,-6.3198,-6.3166,-6.3226,-6.3188,-6.3248,-6.3226,-6.3356,-6.3329,-6.3351,-6.3342,-6.3441,-6.3431,-6.3779,-6.382,-6.3505,-6.3508,-6.3511,0,-6.3072,-6.3148,-6.3151,-6.3187,-6.3195,-6.3255,-6.3286,-6.3236,-6.3271,-6.3294,-6.335,-6.3404,-6.3443,-6.3542,-6.3524,-6.3569,-6.3539,-6.3658,-6.3545,-6.3556,-6.3535,-6.3529,-6.3534,-6.3679,-6.3683,-6.3686,-6.3688,0,-6.3355,-6.3335,-6.3383,-6.3426,-6.3465,-6.3496,-6.3521,-6.3555,-6.3504,-6.3547,-6.3607,-6.3638,-6.37,-6.3752,-6.3791,-6.3792,-6.3731,-6.3725,-6.3749,-6.3762,-6.377,-6.3762,-6.3408,-6.3716,-6.3713,-6.3711,-6.371,-6.3708,-6.3563,-6.3625,-6.3636,-6.3691,-6.3705,-6.373,-6.3785,-6.3772,-6.3822,-6.3867,-6.3835,-6.3906,-6.3917,-6.3962,-6.3972,-6.4025,-6.3977,-6.4013,-6.4022,-6.403,-6.4042,-6.3767,-6.4033,-6.4032,-6.4031,-6.4031,-6.403,0,-6.3836,-6.3839,-6.3891,-6.3928,-6.3972,-6.3913,-6.3938,-6.3977,-6.404,-6.4057,-6.4097,-6.4165,-6.4216,-6.4203,-6.4248,-6.4293,-6.4266,-6.4306,-6.43,-6.43,-6.4085,-6.4057,-6.4327,-6.4327,-6.4327,-6.4327,-6.4327,-6.4327,-6.3984,-6.4084,-6.4066,-6.4173,-6.4175,-6.4243,-6.4262,-6.4284,-6.4296,-6.4375,-6.4418,-6.4409,-6.4413,-6.4458,-6.4501,-6.4496,-6.4514,-6.4564,-6.4548,-6.4346,-6.4316,-6.4288,-6.4261,-6.4569,-6.457,-6.4757,-6.4759,-6.4761]},{"header":{"parameterUnit":"m.s-1","parameterCategory":1,"la1":30.2991,"la2":30.254,"lo1":-89.0895,"lo2":-89.0444,"dy":0.0017,"dx":0.0017,"nx":28,"ny":28,"refTime":"2024-10-02T09:00:00:Z","depth":0,"parameterNumber":3,"parameterNumberName":"V-component_of_WINDS"},"data":[0,0,0,0,0,0,0,0,0,0,0,0,0,0,0,0,0,0,0,0,0,0,0,0,0,0,0,0,0,0,0,0,0,0,0,0,0,0,0,0,0,0,0,0,0,0,0,0,0,0,0,0,0,0,0,0,0,0,1.2145,1.2145,0,1.2179,1.2179,1.218,1.2168,1.2168,1.2167,1.2166,1.22,1.2201,1.2203,0,0,0,0,0,0,0,0,0,0,0,0,0,1.2069,1.2071,1.2145,1.2145,1.2146,1.2179,1.2179,1.218,1.2169,1.2168,1.2167,1.2166,1.2199,1.2201,1.2203,0,0,0,0,0,0,0,0,0,0,0,0,0,1.2102,1.2071,1.2145,1.2144,1.2145,1.2179,1.2179,1.218,1.2169,1.2168,1.2167,1.2166,1.2198,1.2201,1.2203,1.224,0,0,1.221,1.2211,0,0,0,0,0,0,0,0,1.2101,1.2105,1.2144,1.2144,1.2145,1.2168,1.2165,1.22,1.2169,1.216,1.2166,1.2165,1.219,1.2193,1.2202,1.2241,1.2243,1.221,1.2212,1.2213,1.2214,0,0,0,0,0,0,0,1.2098,1.2104,1.2158,1.2144,1.2145,1.2142,1.2145,1.2171,1.218,1.216,1.216,1.2164,1.219,1.2199,1.2202,1.2243,1.221,1.2212,1.2214,1.2215,1.2314,1.2315,0,0,0,0,0,0,1.2096,1.2102,1.2157,1.2159,1.212,1.2144,1.2148,1.2162,1.218,1.2182,1.2165,1.2163,1.2196,1.22,1.2204,1.2247,1.2213,1.2215,1.2216,1.2313,1.2314,1.2316,0,0,0,0,0,0,1.2094,1.2101,1.2156,1.213,1.2137,1.2147,1.2162,1.2163,1.2173,1.2184,1.2185,1.2173,1.2195,1.22,1.2231,1.2248,1.2216,1.2218,1.2311,1.2313,1.2315,1.2335,0,0,0,0,0,0,1.2092,1.2101,1.2115,1.2131,1.2139,1.2183,1.2163,1.2165,1.2177,1.2175,1.2191,1.2193,1.2195,1.2227,1.2233,1.2251,1.222,1.231,1.2312,1.2314,1.2333,1.2338,1.2341,0,0,0,0,0,1.209,1.2119,1.2115,1.2122,1.2157,1.2184,1.2188,1.219,1.2178,1.2192,1.22,1.2193,1.2246,1.2231,1.2237,1.2256,1.2309,1.2312,1.2314,1.2331,1.2337,1.2341,0,0,0,0,0,0,1.2104,1.2121,1.2117,1.2153,1.2167,1.2182,1.22,1.2196,1.2214,1.2211,1.2212,1.2216,1.2247,1.2255,1.2238,1.2292,1.2275,1.228,1.2286,1.2291,1.2296,1.2293,1.2222,0,0,0,0,0,1.2111,1.2132,1.2146,1.2176,1.2183,1.2191,1.2202,1.2203,1.2217,1.2223,1.2232,1.2247,1.2266,1.2279,1.2298,1.2334,1.2337,1.235,1.2355,1.2358,1.2361,1.2381,1.2387,1.2325,1.2325,1.2325,0,0,1.2126,1.2138,1.2151,1.2179,1.219,1.2212,1.2196,1.2219,1.2235,1.2227,1.2256,1.2263,1.2279,1.2313,1.2328,1.232,1.2379,1.2362,1.2364,1.2366,1.2384,1.239,1.2395,1.2327,1.2326,1.2326,0,0,1.2165,1.2176,1.2202,1.2214,1.2231,1.2236,1.2242,1.2258,1.2263,1.2293,1.2287,1.2306,1.234,1.2351,1.2362,1.2405,1.2399,1.2411,1.2433,1.2452,1.2457,1.2461,1.2476,1.2482,1.2415,1.2415,1.2415,0,1.2181,1.2214,1.2216,1.224,1.2252,1.2247,1.2273,1.2284,1.2306,1.2315,1.2305,1.2348,1.2359,1.2395,1.2405,1.2414,1.2421,1.2409,1.2456,1.246,1.2465,1.2479,1.2485,1.2416,1.2416,1.2416,1.2416,0,1.2233,1.2256,1.2275,1.2297,1.2312,1.2337,1.2342,1.2357,1.2356,1.2361,1.2392,1.2404,1.2425,1.2434,1.2433,1.247,1.2464,1.2456,1.2439,1.2472,1.2485,1.2491,1.2418,1.2418,1.2417,1.2417,0,0,1.2281,1.2305,1.2312,1.2322,1.2341,1.2358,1.2383,1.2404,1.2416,1.2432,1.2453,1.2482,1.2474,1.2486,1.2486,1.2503,1.2537,1.2492,1.2493,1.25,1.2578,1.2584,1.259,1.2533,1.2534,1.2535,1.2576,0,1.2321,1.2365,1.2368,1.2407,1.2428,1.2423,1.2445,1.2459,1.2465,1.2483,1.2489,1.251,1.2499,1.2506,1.2522,1.2529,1.2552,1.2526,1.2552,1.2553,1.2547,1.2597,1.2604,1.2642,1.2582,1.2582,1.2583,0,1.2373,1.2391,1.2433,1.2449,1.2458,1.2478,1.2497,1.2515,1.2531,1.2534,1.2547,1.2545,1.257,1.2553,1.2587,1.257,1.258,1.2586,1.2587,1.2589,1.2569,1.26,1.2654,1.266,1.2592,1.2591,1.259,0,1.2403,1.2438,1.2468,1.2477,1.2496,1.251,1.2519,1.2533,1.2546,1.2563,1.2571,1.2591,1.2602,1.2617,1.262,1.2608,1.2655,1.2638,1.2657,1.2657,1.2667,1.2666,1.2723,1.2675,1.2675,1.2675,1.2675,0,1.2447,1.2473,1.2482,1.25,1.2528,1.2531,1.256,1.2567,1.258,1.26,1.2597,1.2615,1.2618,1.2637,1.264,1.2667,1.2672,1.2675,1.2676,1.2675,1.2675,1.2682,1.2679,1.2676,1.2676,1.2676,1.2675,0,1.2486,1.2493,1.2524,1.2541,1.2546,1.2566,1.258,1.2597,1.2603,1.2627,1.2633,1.2642,1.2664,1.2669,1.2695,1.2697,1.2729,1.2727,1.2724,1.2724,1.2743,1.2741,1.2806,1.2815,1.2761,1.2762,1.2762,0,1.2513,1.2533,1.2552,1.2565,1.2574,1.2595,1.2608,1.2612,1.2626,1.2645,1.266,1.2682,1.2699,1.2734,1.2742,1.2762,1.276,1.2782,1.2763,1.2762,1.276,1.2759,1.276,1.2785,1.2786,1.2786,1.2786,0,1.2561,1.2564,1.2583,1.2604,1.262,1.2636,1.2651,1.2662,1.2668,1.2683,1.2706,1.272,1.2746,1.2768,1.2788,1.2796,1.2792,1.2792,1.2798,1.2797,1.2795,1.2796,1.2733,1.2791,1.279,1.279,1.279,1.279,1.2595,1.2612,1.2628,1.265,1.2662,1.2677,1.2694,1.2702,1.2721,1.2743,1.2744,1.2769,1.2784,1.281,1.282,1.2839,1.2832,1.284,1.2842,1.2844,1.2845,1.2792,1.2842,1.2842,1.2842,1.2842,1.2842,0,1.2642,1.2652,1.2672,1.2694,1.2711,1.2707,1.2724,1.2738,1.276,1.2775,1.2792,1.2818,1.2839,1.2849,1.287,1.2883,1.2881,1.2888,1.2887,1.2888,1.285,1.2843,1.2889,1.2888,1.2888,1.2888,1.2888,1.2888,1.2669,1.2698,1.2702,1.2737,1.2747,1.2772,1.2782,1.2795,1.2807,1.2836,1.2854,1.286,1.2873,1.2894,1.2913,1.2916,1.2923,1.293,1.2932,1.2896,1.2891,1.2887,1.288,1.2932,1.2932,1.2968,1.2968,1.2969]}]]